DMSP 5D-2 F13 DEB

Satellite information

Favourite Embed

Satellite Type and Status

DEBRISIN ORBIT

Key statistics

Satellite DMSP 5D-2 F13 DEB at a glance.

Uptime

11166

Days in orbit

Revolutions

≈ 14.2

Per day

Orbit

SSO

Sun Synchronous Orbit

Inclination

98.8

Latest

Satellite identification and parameters

Extended collection of information and parameters for DMSP 5D-2 F13 DEB.

Object identification

Identified? True

Debris? True

Object name: DMSP 5D-2 F13 DEB

International designator: 1995-015X

Object number (NORAD): 40410

Object ID (CCSDS): 40410

Country: UNITED STATES OF AMERICA (US)

Current information (Y/N): Y

RCS size: SMALL

Orbital parameters

Period: 101.079 minutes

Inclination: 98.818 deg

SMA: 7187.888 km

Apoapsis: 822.166 km

Periapsis: 797.339 km

RAAN: 311.1503 deg

Eccentricy: 0.00172695

Argument of periapsis: 203.5652 deg

Mean anomaly: 156.4737 deg

Mean motion: 14.2462594 rev/day

Mean motion (dot): 0.00003459 rev/day2

B* drag term: 0.001505203 1/REarth

Two-line elements (TLE)

Creation date: Oct. 18, 2025, 2:17 a.m.

Reference frame: TEME

Reference center: EARTH

Epoch: Oct. 18, 2025, 12:17 a.m. UTC

TLE line 0: 0 DMSP 5D-2 F13 DEB

TLE line 1: 1 40410U 95015X 25291.01239023 .00003459 00000-0 15052-2 0 9994

TLE line 2: 2 40410 98.8180 311.1503 0017270 203.5652 156.4737 14.24625940550177

Live tracking on map

Real-time ground track for satellite DMSP 5D-2 F13 DEB.

In-orbit conjunctions

A list of the most updated potential collisions computed for object DMSP 5D-2 F13 DEB.

Target Orbit TCA Probability of collision Miss distance Type
CZ-6A DEB LEO 2025-08-19 14:32:14 0.0002437341 167.0 (m) DEBRIS
CZ-6A R/B LEO 2025-02-05 08:17:28 0.0005729979 224.0 (m) ROCKET BODY
METEOR 2-7 LEO 2024-12-13 19:43:27 0.0001197502 518.0 (m) PAYLOAD
COSMOS 970 DEB LEO 2024-11-13 08:46:52 0.0001222891 78.0 (m) DEBRIS

Associated space launch

Military meteorological satellite

DMSP 5D-2 F13 DEB was lifted into orbit during the mission ‘Atlas E | DMSP-5D2 F13’, on board a Atlas E space rocket.

The launch took place on March 24, 1995, 2:05 p.m. from Space Launch Complex 3W.

For more information about the launch, click the button.

Launch to space Atlas E | DMSP-5D2 F13
Atlas E | DMSP-5D2 F13

Agency: N/A

Status: Launch Successful

Launch date: March 24, 1995, 2:05 p.m. UTC

Rocket: Atlas E

Launch pad: Space Launch Complex 3W

Location: Vandenberg SFB, CA, USA

...

Latest news about this satellite

There are no fresh news available about this satellite. Check back as we update our databases every day.


Newsletter sign-up

Weekly statistics, charts and insights to help you stay on top of the space industry.